Regional Weather Roundup
Issued by NWS

Home | Current Version | Previous Version | Text Only | Print | Product List | Glossary On
Versions: 1 2 3 4 5 6 7 8 9 10 11 12 13 14 15 16 17 18 19 20 21 22 23 24 25 26 27 28 29 30 31 32 33 34 35 36 37 38 39 40 41 42 43 44 45 46 47 48 49 50
000
ASUS43 KLSX 282307
RWRMO

WEATHER SUMMARY FOR MISSOURI
NATIONAL WEATHER SERVICE SPRINGFIELD MO
600 PM CDT THU AUG 28 2014

NOTE: "FAIR" INDICATES FEW OR NO CLOUDS BELOW 12,000 FEET WITH NO
       SIGNIFICANT WEATHER AND/OR OBSTRUCTIONS TO VISIBILITY.
       CURRENT SKY AND/OR WEATHER CONDITIONS ARE NOT AVAILABLE FOR
       CHILLICOTHE AND FARMINGTON.

MOZ001>031-035>038-043-044-053-054-290000-
...NORTHERN AND WESTERN MISSOURI...

CITY           SKY/WX    TMP DP  RH WIND       PRES   REMARKS
KANSAS CTY INT MOSUNNY   90  69  50 SE14      29.87S HX  94
KANSAS C DTWN  SUNNY     92  66  42 S16       29.86S HX  94
LEE`S SUMMIT   SUNNY     90  66  45 S7        29.89F HX  92
ST JOSEPH      MOSUNNY   89  71  55 S9        29.84F HX  95
CHILLICOTHE      N/A     88  75  65 S5        29.89F HX  97
KIRKSVILLE     MOSUNNY   84  74  71 E6        29.94F HX  91

$$
MOZ066>068-077>081-088>096-101>105-290000-
...SOUTHWEST MISSOURI...

CITY           SKY/WX    TMP DP  RH WIND       PRES   REMARKS
SPRINGFIELD    SUNNY     91  55  29 S12       29.92F
JOPLIN         SUNNY     91  59  33 S15G23    29.90F HX  90

$$
MOZ032>034-039>042-045>050-055>058-069>072-290000-
...CENTRAL MISSOURI...

CITY           SKY/WX    TMP DP  RH WIND       PRES   REMARKS
COLUMBIA       MOSUNNY   91  66  43 S10       29.92F HX  93
JEFFERSON CITY SUNNY     92  66  42 SE6       29.90S HX  94
ROLLA          MOSUNNY   92  61  35 SW9       29.93S HX  92
SEDALIA        MOSUNNY   89  67  47 SE6       29.91F HX  92
WHITEMAN AFB   MOSUNNY   89  70  52 S6        29.90S HX  94
OSAGE BEACH    MOSUNNY   93  63  36 S6        29.91F HX  94

$$
MOZ051-052-059>065-290000-
...EAST CENTRAL MISSOURI...

CITY           SKY/WX    TMP DP  RH WIND       PRES   REMARKS
ST LOUIS INTL  TSTM      79  74  84 W8        29.96R
SPIRIT OF STL  PTSUNNY   77  71  82 E3        29.93F
ST CHARLES     FOG       76  72  87 SW23G41   29.97R THUNDER VSB 3/4

$$
MOZ072>076-082>087-097>100-106>115-290000-
...SOUTH CENTRAL AND SOUTHEAST MISSOURI...

CITY           SKY/WX    TMP DP  RH WIND       PRES   REMARKS
CAPE GIRARDEAU CLOUDY    75  70  84 E9        29.97R
FARMINGTON     PTSUNNY   84  72  65 NE12      29.99R
POPLAR BLUFF   MOSUNNY   90  64  42 S6        29.94R HX  91
WEST PLAINS    MOSUNNY   90  59  35 S9        29.96F

$$



USA.gov is the U.S. government's official web portal to all federal, state and local government web resources and services.